Change the Weather History Date:

Monday, March 24, 2014

  Actual Average Record
Temperature  
Mean Temperature -5 °F -  
Max Temperature 16 °F 35 °F 46 °F (1999)
Min Temperature -24 °F 13 °F -24 °F (2014)
Degree Days  
Heating Degree Days 70    
Moisture  
Dew Point -9 °F    
Average Humidity 69    
Maximum Humidity 86    
Minimum Humidity 49    
Precipitation  
Precipitation 0.04 in - - ()
Sea Level Pressure  
Sea Level Pressure 30.09 in    
Wind  
Wind Speed 2 mph (West)    
Max Wind Speed 7 mph    
Max Gust Speed 18 mph    
Averages and records for this station are not official NWS values.
T = Trace of Precipitation, MM = Missing Value Source: NWS Daily Summary

Daily Weather History Graph

Daily Weather History Graph

Search for Another Location

Airport or City:

Trip Planner

Search our weather history database for the weather conditions in past years. The results will help you decide how hot, cold, wet, or windy it might be!

Date:

Astronomy

Mar. 24, 2014 Rise Set
Actual Time 6:33 AM EDT 6:56 PM EDT
Civil Twilight 6:03 AM EDT 7:26 PM EDT
Nautical Twilight 5:27 AM EDT 8:02 PM EDT
Astronomical Twilight 4:50 AM EDT 8:39 PM EDT
Moon 2:20 AM EDT (3/24) 11:58 AM EDT (3/24)
Length of Visible Light 13h 23m
Length of Day
12h 22m
Last Quarter, 43% of the Moon is Illuminated
Mar 24
Last Quarter
Mar 30
New
Apr 7
First Quarter
Apr 15
Full
Apr 22
Last Quarter

Hourly Weather History & Observations

Time (EDT) Temp. Windchill Dew Point Humidity Pressure Visibility Wind Dir Wind Speed Gust Speed Precip Events Conditions
12:16 AM -8.7 °F - -13.7 °F 79% 30.11 in - Calm Calm - 0.00 in   Unknown
1:16 AM -14.1 °F - -18.4 °F 81% 30.12 in - Calm Calm - N/A   Unknown
2:16 AM -14.4 °F - -17.7 °F 85% 30.12 in - Variable 2.3 mph - N/A   Unknown
3:16 AM -15.3 °F - -20.9 °F 76% 30.11 in - Calm Calm - 0.01 in   Unknown
4:16 AM -18.4 °F - -23.1 °F 79% 30.11 in - Calm Calm - N/A   Unknown
5:16 AM -18.0 °F - -22.5 °F 80% 30.12 in - Calm Calm - N/A   Unknown
6:16 AM -23.1 °F - -28.5 °F 76% 30.13 in - Calm Calm - 0.00 in   Unknown
7:16 AM -24.7 °F - -30.6 °F 74% 30.15 in - Calm Calm - N/A   Unknown
8:16 AM -5.3 °F -13.8 °F -9.2 °F 83% 30.16 in - Variable 3.5 mph - 0.03 in   Unknown
9:16 AM 3.4 °F -8.9 °F -7.4 °F 61% 30.15 in - West 6.9 mph 13.8 mph N/A   Unknown
10:16 AM 6.4 °F -5.2 °F -6.0 °F 57% 30.14 in - Variable 6.9 mph 16.1 mph N/A   Unknown
11:16 AM 9.7 °F -0.1 °F -5.6 °F 50% 30.12 in - Variable 5.8 mph 12.7 mph N/A   Unknown
12:16 PM 11.1 °F 3.1 °F -3.6 °F 52% 30.11 in - Variable 4.6 mph 13.8 mph N/A   Unknown
1:16 PM 13.5 °F 5.8 °F -1.3 °F 52% 30.08 in - Variable 4.6 mph 12.7 mph N/A   Unknown
2:16 PM 14.2 °F 6.7 °F -2.0 °F 49% 30.06 in - Variable 4.6 mph 13.8 mph N/A   Unknown
3:16 PM 14.4 °F 8.6 °F -0.8 °F 51% 30.04 in - Variable 3.5 mph 15.0 mph N/A   Unknown
4:16 PM 14.2 °F 4.1 °F 1.0 °F 56% 30.03 in - Variable 6.9 mph 18.4 mph N/A   Unknown
5:16 PM 14.9 °F 9.2 °F 0.9 °F 54% 30.03 in - Variable 3.5 mph 15.0 mph N/A   Unknown
6:16 PM 13.3 °F 7.3 °F 0.7 °F 57% 30.03 in - Variable 3.5 mph - N/A   Unknown
7:16 PM 11.1 °F 4.9 °F 1.2 °F 64% 30.02 in - Variable 3.5 mph - N/A   Unknown
8:16 PM 4.3 °F - -1.1 °F 78% 30.04 in - Calm Calm - 0.00 in   Unknown
9:16 PM -0.6 °F - -4.9 °F 82% 30.05 in - Calm Calm - N/A   Unknown
10:16 PM -0.6 °F - -3.8 °F 86% 30.06 in - Calm Calm - 0.00 in   Unknown
11:16 PM -5.1 °F - -8.7 °F 84% 30.07 in - Calm Calm - N/A   Unknown